Location: Diebersbach
(48.5163°N, 8.0558°E)
Time: 10:11:38
(UTC+00:00)

S3M - Pass Details

Date: 20 June 2021
Orbit: 950 x 1003 km, 83.0° (Epoch: 01 August)

Event Time Altitude Azimuth Distance (km) Brightness Sun altitude
Rises 02:07:29 0° 350° (N) 3,642 7.7 -9.8°
Reaches altitude 10° 02:09:58 10° 351° (N) 2,696 7.0 -9.6°
Maximum altitude 02:16:09 89° 81° (E) 970 4.0 -9.0°
Drops below altitude 10° 02:22:22 10° 173° (S) 2,709 5.9 -8.3°
Sets 02:24:53 0° 173° (S) 3,660 6.6 -8.1°
